[[{"header":{"parameterUnit":"m.s-1","parameterCategory":1,"la1":30.2991,"la2":30.254,"lo1":-89.0895,"lo2":-89.0444,"dy":0.0017,"dx":0.0017,"nx":28,"ny":28,"refTime":"2025-06-23T03:00:00:Z","depth":0,"parameterNumber":2,"parameterNumberName":"U-component_of_WINDS"},"data":[0,0,0,0,0,0,0,0,0,0,0,0,0,0,0,0,0,0,0,0,0,0,0,0,0,0,0,0,0,0,0,0,0,0,0,0,0,0,0,0,0,0,0,0,0,0,0,0,0,0,0,0,0,0,0,0,0,0,-2.5339,-2.5339,0,-2.5356,-2.5356,-2.5356,-2.5271,-2.5269,-2.5267,-2.5264,-2.5281,-2.5284,-2.5287,0,0,0,0,0,0,0,0,0,0,0,0,0,-2.5233,-2.5235,-2.5339,-2.5339,-2.5339,-2.5356,-2.5356,-2.5356,-2.5272,-2.5269,-2.5266,-2.5263,-2.528,-2.5284,-2.5287,0,0,0,0,0,0,0,0,0,0,0,0,0,-2.5267,-2.5236,-2.5339,-2.5299,-2.5296,-2.5356,-2.5356,-2.5356,-2.5272,-2.5269,-2.5265,-2.5262,-2.5279,-2.5283,-2.5287,-2.5386,0,0,-2.53,-2.5302,0,0,0,0,0,0,0,0,-2.5265,-2.5271,-2.5305,-2.5302,-2.5298,-2.5308,-2.5325,-2.5366,-2.5273,-2.5281,-2.5264,-2.526,-2.5293,-2.5296,-2.5307,-2.5387,-2.5387,-2.53,-2.5303,-2.5304,-2.5306,0,0,0,0,0,0,0,-2.5263,-2.527,-2.5345,-2.5305,-2.5301,-2.528,-2.5281,-2.5332,-2.5307,-2.528,-2.5274,-2.5277,-2.529,-2.5303,-2.5307,-2.5388,-2.53,-2.5304,-2.5306,-2.5308,-2.5549,-2.5553,0,0,0,0,0,0,-2.5266,-2.5269,-2.5345,-2.5346,-2.5272,-2.5285,-2.5286,-2.5308,-2.5307,-2.5303,-2.5281,-2.5273,-2.5298,-2.5302,-2.5307,-2.5422,-2.5304,-2.5308,-2.5311,-2.5545,-2.555,-2.5554,0,0,0,0,0,0,-2.5264,-2.5274,-2.5344,-2.5306,-2.5313,-2.5291,-2.5317,-2.5311,-2.5323,-2.5307,-2.5302,-2.5298,-2.5295,-2.5301,-2.5367,-2.5421,-2.531,-2.5314,-2.554,-2.5546,-2.5552,-2.5653,0,0,0,0,0,0,-2.5261,-2.5273,-2.5311,-2.5307,-2.5315,-2.5404,-2.532,-2.5314,-2.533,-2.5321,-2.5322,-2.5319,-2.5293,-2.5361,-2.5371,-2.5425,-2.5317,-2.5535,-2.5543,-2.555,-2.5645,-2.5661,-2.5676,0,0,0,0,0,-2.5258,-2.5338,-2.5313,-2.5323,-2.5362,-2.5407,-2.5412,-2.5381,-2.5335,-2.5372,-2.5362,-2.5319,-2.5414,-2.5369,-2.5379,-2.5435,-2.5532,-2.5541,-2.5549,-2.5637,-2.5658,-2.5676,0,0,0,0,0,0,-2.5349,-2.5337,-2.5309,-2.5391,-2.5401,-2.5393,-2.5439,-2.5404,-2.5427,-2.5417,-2.5378,-2.5379,-2.5451,-2.5449,-2.5399,-2.553,-2.5465,-2.5476,-2.5528,-2.5548,-2.5563,-2.5562,-2.532,0,0,0,0,0,-2.5379,-2.5417,-2.5405,-2.5478,-2.5484,-2.5461,-2.548,-2.5455,-2.5464,-2.5468,-2.5462,-2.5472,-2.5504,-2.5526,-2.5555,-2.5644,-2.5643,-2.5688,-2.5704,-2.5717,-2.5727,-2.5773,-2.5793,-2.5583,-2.5583,-2.5583,0,0,-2.544,-2.5438,-2.5465,-2.5496,-2.5501,-2.5541,-2.5465,-2.5511,-2.5541,-2.5474,-2.5536,-2.5533,-2.5541,-2.5619,-2.5653,-2.562,-2.5784,-2.5728,-2.5738,-2.5741,-2.5785,-2.5805,-2.5822,-2.5589,-2.5588,-2.5587,0,0,-2.5572,-2.5575,-2.5636,-2.5643,-2.5651,-2.5636,-2.5651,-2.5648,-2.5643,-2.5705,-2.5656,-2.569,-2.5747,-2.5754,-2.5766,-2.5902,-2.5863,-2.5913,-2.5995,-2.6041,-2.6057,-2.6072,-2.612,-2.6138,-2.5923,-2.5923,-2.5923,0,-2.5647,-2.5706,-2.5672,-2.5722,-2.5737,-2.5679,-2.5741,-2.5749,-2.5766,-2.5778,-2.5741,-2.581,-2.5812,-2.5891,-2.5924,-2.5936,-2.5951,-2.5912,-2.6058,-2.6072,-2.6085,-2.613,-2.6149,-2.5929,-2.5929,-2.5928,-2.5927,0,-2.5798,-2.584,-2.5889,-2.5907,-2.5928,-2.5983,-2.5957,-2.5982,-2.5956,-2.5944,-2.6007,-2.6007,-2.6035,-2.6052,-2.6027,-2.6128,-2.6107,-2.6065,-2.5998,-2.6111,-2.6153,-2.617,-2.5938,-2.5936,-2.5934,-2.5932,0,0,-2.5987,-2.5987,-2.6005,-2.6013,-2.6018,-2.605,-2.6103,-2.613,-2.6152,-2.6166,-2.6209,-2.6258,-2.6219,-2.6232,-2.6208,-2.6249,-2.6356,-2.6201,-2.62,-2.6229,-2.6466,-2.6497,-2.6518,-2.633,-2.6333,-2.6336,-2.6465,0,-2.6116,-2.6206,-2.6178,-2.6269,-2.6307,-2.6253,-2.6299,-2.6307,-2.6298,-2.6328,-2.6318,-2.6353,-2.6299,-2.6307,-2.6345,-2.6335,-2.6403,-2.6325,-2.6369,-2.6371,-2.6368,-2.654,-2.6573,-2.6695,-2.6481,-2.6484,-2.6486,0,-2.6279,-2.63,-2.6395,-2.6394,-2.6409,-2.6451,-2.6473,-2.6503,-2.6512,-2.6502,-2.6517,-2.6484,-2.6535,-2.647,-2.654,-2.6488,-2.6504,-2.6502,-2.6506,-2.6508,-2.6435,-2.6546,-2.6733,-2.6751,-2.6512,-2.651,-2.6508,0,-2.6406,-2.6458,-2.6522,-2.653,-2.6531,-2.6561,-2.6563,-2.6568,-2.6586,-2.6606,-2.6617,-2.6643,-2.6657,-2.6678,-2.6652,-2.6607,-2.6726,-2.6658,-2.6719,-2.672,-2.6746,-2.6744,-2.6937,-2.6758,-2.6758,-2.6758,-2.6757,0,-2.6553,-2.6613,-2.6579,-2.6618,-2.6684,-2.665,-2.6716,-2.6712,-2.6717,-2.6754,-2.6709,-2.6745,-2.6709,-2.6742,-2.6722,-2.6783,-2.679,-2.6783,-2.6777,-2.6787,-2.6787,-2.6796,-2.6787,-2.6762,-2.6761,-2.676,-2.676,0,-2.6706,-2.6686,-2.6751,-2.6747,-2.6747,-2.6796,-2.6792,-2.6827,-2.6815,-2.6863,-2.6872,-2.6852,-2.6888,-2.6865,-2.6901,-2.6888,-2.6967,-2.695,-2.6965,-2.696,-2.7021,-2.7016,-2.7226,-2.7251,-2.7057,-2.7059,-2.7061,0,-2.68,-2.6845,-2.6846,-2.6868,-2.6872,-2.6908,-2.6926,-2.6895,-2.6916,-2.693,-2.6964,-2.6996,-2.702,-2.708,-2.7069,-2.7096,-2.7078,-2.715,-2.7082,-2.709,-2.7078,-2.7076,-2.708,-2.7164,-2.7166,-2.7168,-2.7169,0,-2.697,-2.6958,-2.6986,-2.7012,-2.7035,-2.7053,-2.7068,-2.7088,-2.7057,-2.7083,-2.712,-2.7138,-2.7175,-2.7208,-2.7231,-2.7232,-2.7196,-2.7191,-2.7206,-2.7216,-2.7222,-2.7219,-2.7001,-2.7186,-2.7184,-2.7183,-2.7182,-2.7182,-2.7095,-2.7133,-2.7139,-2.7172,-2.718,-2.7195,-2.7229,-2.7221,-2.725,-2.7278,-2.7258,-2.7301,-2.7309,-2.7336,-2.7342,-2.7375,-2.7345,-2.7368,-2.7373,-2.7379,-2.7387,-2.7218,-2.7379,-2.7379,-2.7378,-2.7378,-2.7377,0,-2.7261,-2.7263,-2.7294,-2.7316,-2.7343,-2.7307,-2.7322,-2.7346,-2.7384,-2.7394,-2.7419,-2.7461,-2.7492,-2.7484,-2.7512,-2.754,-2.7524,-2.7548,-2.7545,-2.7546,-2.7412,-2.7396,-2.756,-2.756,-2.756,-2.756,-2.756,-2.756,-2.7351,-2.7412,-2.7401,-2.7466,-2.7467,-2.7509,-2.752,-2.7534,-2.7541,-2.759,-2.7616,-2.7611,-2.7613,-2.7641,-2.7668,-2.7665,-2.7677,-2.7707,-2.7698,-2.7573,-2.7555,-2.7538,-2.7522,-2.771,-2.771,-2.7828,-2.7829,-2.783]},{"header":{"parameterUnit":"m.s-1","parameterCategory":1,"la1":30.2991,"la2":30.254,"lo1":-89.0895,"lo2":-89.0444,"dy":0.0017,"dx":0.0017,"nx":28,"ny":28,"refTime":"2025-06-23T03:00:00:Z","depth":0,"parameterNumber":3,"parameterNumberName":"V-component_of_WINDS"},"data":[0,0,0,0,0,0,0,0,0,0,0,0,0,0,0,0,0,0,0,0,0,0,0,0,0,0,0,0,0,0,0,0,0,0,0,0,0,0,0,0,0,0,0,0,0,0,0,0,0,0,0,0,0,0,0,0,0,0,-1.0907,-1.0908,0,-1.0935,-1.0936,-1.0936,-1.1,-1.1002,-1.1003,-1.1004,-1.103,-1.1029,-1.1029,0,0,0,0,0,0,0,0,0,0,0,0,0,-1.0906,-1.0905,-1.0907,-1.0908,-1.0908,-1.0935,-1.0936,-1.0936,-1.1,-1.1002,-1.1003,-1.1005,-1.103,-1.1029,-1.1029,0,0,0,0,0,0,0,0,0,0,0,0,0,-1.0917,-1.0905,-1.0907,-1.0943,-1.0947,-1.0935,-1.0936,-1.0936,-1.1,-1.1002,-1.1004,-1.1006,-1.103,-1.103,-1.1029,-1.0983,0,0,-1.1026,-1.1026,0,0,0,0,0,0,0,0,-1.0916,-1.0917,-1.0938,-1.0941,-1.0945,-1.0966,-1.0945,-1.0952,-1.0999,-1.0979,-1.1004,-1.1007,-1.1007,-1.1008,-1.1009,-1.0985,-1.0986,-1.1026,-1.1026,-1.1025,-1.1025,0,0,0,0,0,0,0,-1.0915,-1.0916,-1.0918,-1.0938,-1.0942,-1.0957,-1.0961,-1.0946,-1.0982,-1.0981,-1.0986,-1.0989,-1.1009,-1.101,-1.101,-1.0986,-1.1026,-1.1025,-1.1025,-1.1024,-1.0924,-1.0922,0,0,0,0,0,0,-1.091,-1.0915,-1.0917,-1.0919,-1.0935,-1.0955,-1.096,-1.0957,-1.0982,-1.0988,-1.0987,-1.0992,-1.101,-1.1011,-1.1011,-1.0958,-1.1025,-1.1024,-1.1024,-1.0926,-1.0923,-1.0921,0,0,0,0,0,0,-1.091,-1.091,-1.0916,-1.0918,-1.092,-1.0953,-1.095,-1.0957,-1.0957,-1.0986,-1.0993,-1.0981,-1.1012,-1.1012,-1.099,-1.096,-1.1024,-1.1023,-1.0928,-1.0925,-1.0922,-1.0852,0,0,0,0,0,0,-1.0909,-1.0909,-1.0893,-1.0918,-1.092,-1.0895,-1.0948,-1.0956,-1.0956,-1.0962,-1.0982,-1.0987,-1.1013,-1.099,-1.0989,-1.096,-1.1023,-1.0931,-1.0927,-1.0923,-1.0857,-1.0847,-1.0838,0,0,0,0,0,-1.0909,-1.0872,-1.0892,-1.0892,-1.0901,-1.0893,-1.0895,-1.0926,-1.0953,-1.0937,-1.0955,-1.0987,-1.0964,-1.0988,-1.0986,-1.0957,-1.0933,-1.0928,-1.0923,-1.0862,-1.0849,-1.0838,0,0,0,0,0,0,-1.0842,-1.0876,-1.0898,-1.0868,-1.0877,-1.0904,-1.0884,-1.0912,-1.0913,-1.0918,-1.0956,-1.096,-1.0932,-1.0942,-1.0968,-1.0913,-1.0953,-1.0948,-1.0907,-1.0895,-1.0886,-1.0883,-1.1022,0,0,0,0,0,-1.0824,-1.0816,-1.0846,-1.0816,-1.082,-1.0851,-1.0849,-1.0872,-1.0883,-1.0887,-1.0904,-1.0912,-1.0906,-1.0902,-1.0898,-1.086,-1.0864,-1.0839,-1.0829,-1.0821,-1.0815,-1.0793,-1.0782,-1.0905,-1.0905,-1.0905,0,0,-1.0787,-1.0804,-1.0796,-1.0803,-1.0813,-1.0803,-1.0854,-1.0841,-1.0833,-1.0885,-1.0864,-1.0876,-1.0888,-1.0856,-1.0843,-1.0864,-1.0782,-1.0815,-1.0808,-1.0807,-1.0787,-1.0775,-1.0765,-1.0902,-1.0902,-1.0903,0,0,-1.0712,-1.0725,-1.0701,-1.071,-1.0725,-1.0746,-1.074,-1.0762,-1.0772,-1.0752,-1.079,-1.0781,-1.0771,-1.0777,-1.0779,-1.0706,-1.0734,-1.0704,-1.0653,-1.0631,-1.0621,-1.0613,-1.0584,-1.0574,-1.0698,-1.0698,-1.0698,0,-1.0663,-1.065,-1.0685,-1.067,-1.0671,-1.0718,-1.0693,-1.07,-1.0711,-1.071,-1.0734,-1.0722,-1.0733,-1.0703,-1.0684,-1.0685,-1.0678,-1.0701,-1.062,-1.0612,-1.0605,-1.0578,-1.0567,-1.0694,-1.0694,-1.0695,-1.0695,0,-1.0588,-1.0577,-1.0556,-1.0567,-1.0566,-1.0546,-1.0577,-1.0572,-1.0595,-1.0613,-1.059,-1.0606,-1.0605,-1.06,-1.0623,-1.0572,-1.0584,-1.0614,-1.0655,-1.0588,-1.0564,-1.0554,-1.0688,-1.069,-1.0691,-1.0692,0,0,-1.0471,-1.0502,-1.0493,-1.0498,-1.0517,-1.0509,-1.049,-1.0491,-1.0484,-1.0491,-1.0475,-1.0465,-1.0492,-1.0493,-1.0517,-1.0498,-1.0436,-1.053,-1.053,-1.051,-1.0379,-1.0355,-1.0343,-1.0456,-1.0454,-1.0453,-1.0377,0,-1.04,-1.037,-1.0401,-1.0364,-1.0354,-1.0399,-1.0382,-1.0391,-1.0407,-1.04,-1.0417,-1.0409,-1.0446,-1.0447,-1.043,-1.0447,-1.041,-1.0454,-1.0439,-1.0438,-1.0433,-1.0331,-1.0306,-1.0234,-1.0368,-1.0367,-1.0365,0,-1.0312,-1.0315,-1.0277,-1.0297,-1.0294,-1.0279,-1.0281,-1.0274,-1.0284,-1.0297,-1.0299,-1.0327,-1.0309,-1.035,-1.0323,-1.0352,-1.0348,-1.0355,-1.0353,-1.0351,-1.0396,-1.0324,-1.0212,-1.02,-1.0351,-1.0352,-1.0353,0,-1.0228,-1.0223,-1.0199,-1.0202,-1.0225,-1.0213,-1.0222,-1.0235,-1.0232,-1.0234,-1.0232,-1.0231,-1.023,-1.0228,-1.0255,-1.0283,-1.0223,-1.0268,-1.0232,-1.0231,-1.0216,-1.0216,-1.0099,-1.0216,-1.0217,-1.0217,-1.0217,0,-1.0144,-1.0118,-1.0161,-1.0146,-1.0119,-1.0154,-1.0125,-1.0139,-1.0149,-1.0137,-1.0175,-1.0162,-1.02,-1.019,-1.0211,-1.0184,-1.0184,-1.0192,-1.0198,-1.0188,-1.0186,-1.0184,-1.0189,-1.0214,-1.0215,-1.0215,-1.0216,0,-1.0045,-1.0073,-1.005,-1.0074,-1.0079,-1.0057,-1.0077,-1.0063,-1.0082,-1.0065,-1.0063,-1.0092,-1.0082,-1.011,-1.0104,-1.0118,-1.0079,-1.0094,-1.0075,-1.0079,-1.004,-1.0043,-0.9917,-0.9901,-1.003,-1.0029,-1.0028,0,-0.9988,-0.997,-0.9992,-0.9986,-0.9993,-0.9984,-0.9982,-1.0016,-1.0012,-1.0022,-1.0006,-1.0001,-0.9997,-0.998,-0.9999,-0.9994,-1.0008,-0.9964,-1.0007,-0.9997,-1.0004,-1.0004,-1.0002,-0.9954,-0.9953,-0.9951,-0.995,0,-0.9884,-0.9899,-0.9895,-0.9895,-0.9891,-0.9893,-0.9897,-0.989,-0.9927,-0.992,-0.9911,-0.9908,-0.9903,-0.9895,-0.9895,-0.9903,-0.9931,-0.9937,-0.9928,-0.9916,-0.9906,-0.9908,-1.0048,-0.9939,-0.994,-0.9941,-0.9942,-0.9942,-0.9803,-0.9788,-0.9801,-0.9795,-0.9801,-0.9804,-0.9792,-0.9809,-0.9803,-0.9801,-0.9822,-0.9808,-0.9817,-0.982,-0.9824,-0.9813,-0.9833,-0.982,-0.9817,-0.9813,-0.9805,-0.9909,-0.9813,-0.9814,-0.9814,-0.9814,-0.9815,0,-0.9699,-0.971,-0.9704,-0.9708,-0.9703,-0.9732,-0.9738,-0.9731,-0.9718,-0.9725,-0.9721,-0.971,-0.9702,-0.9721,-0.9716,-0.9703,-0.9716,-0.97,-0.9701,-0.9701,-0.9789,-0.9796,-0.969,-0.969,-0.969,-0.969,-0.969,-0.969,-0.9644,-0.962,-0.9635,-0.9614,-0.9624,-0.9612,-0.9612,-0.9614,-0.9619,-0.9605,-0.9599,-0.9612,-0.9623,-0.9619,-0.9613,-0.9618,-0.9614,-0.9593,-0.9602,-0.9683,-0.9696,-0.9707,-0.9714,-0.9592,-0.9592,-0.9516,-0.9515,-0.9514]}]]